Flag for Uzbekistan Weather past 2 weeks in Tashkent, Uzbekistan

Now
59 °F

Clear.


Feels Like: 59 °F
Forecast: 51 / 71 °F
Wind: 1 mph from Northwest

Location: Tashkent


UV Index: 5 (Moderate)

Visibility: 10 mi


Pressure: 30.07 "Hg

Humidity: 42%

Dew point: 36 °F

Location of TashkentLocation

Historic Weather in Tashkent

°F

Tashkent temperature yesterday

Maximum temperature yesterday: 70 °F (at 1:30 PM)
Minimum temperature yesterday: 41 °F (at 6:30 AM)
Average temperature yesterday: 59 °F

Past Weeks' High & Low Weather Summary

 TemperatureHumidityPressure
High77 °F (Apr 9, 3:00 PM)100% (Apr 6, 12:30 AM)30.51 "Hg (Apr 6, 12:30 AM)
Low34 °F (Apr 7, 6:30 AM)8% (Apr 9, 4:30 PM)29.77 "Hg (Apr 10, 4:00 AM)
Average53 °F60%30.11 "Hg
* Reported Apr 2 8:00 PM — Apr 17 8:30 PM, Tashkent, Weather by CustomWeather, © 2014

Note: Actual official high and low records may vary slightly from our data, if they occured in-between our weather recording intervals... More about our weather records

Advertising

Historic Weather Conditions — Data for Previous 24 hours

 ConditionsComfort  
Time TempWeatherWind HumidityBarometerVisibility
8:30 PM
Apr 17
61 °FClear.3 mph36%30.04 "Hg10 mi
8:00 PM61 °FClear.3 mph36%30.04 "Hg10 mi
7:30 PM61 °FClear.3 mph39%30.04 "Hg10 mi
7:00 PM61 °FSunny.8 mph39%30.04 "Hg10 mi
6:30 PM63 °FSunny.8 mph39%30.01 "Hg10 mi
6:00 PM66 °FSunny.8 mph32%30.01 "Hg10 mi
5:30 PM68 °FPassing clouds.6 mph28%30.01 "HgN/A
5:00 PM68 °FPassing clouds.6 mph28%30.01 "HgN/A
4:30 PM68 °FPassing clouds.6 mph30%30.01 "HgN/A
4:00 PM70 °FSunny.6 mph29%30.01 "Hg10 mi
3:30 PM68 °FPassing clouds.6 mph33%30.01 "HgN/A
3:00 PM68 °FPassing clouds.8 mph30%30.01 "HgN/A
2:30 PM68 °FPassing clouds.6 mph33%30.01 "HgN/A
2:00 PM68 °FSunny.6 mph33%30.01 "Hg10 mi
1:30 PM68 °FSunny.3 mph26%30.01 "Hg10 mi
1:00 PM68 °FPassing clouds.3 mph33%30.01 "HgN/A
12:00 PM66 °FPassing clouds.6 mph37%30.04 "HgN/A
11:00 AM64 °FPassing clouds.3 mph37%30.04 "HgN/A
10:30 AM63 °FPassing clouds.6 mph45%30.04 "HgN/A
10:00 AM61 °FPassing clouds.3 mph45%30.04 "HgN/A
9:30 AM59 °FPassing clouds.6 mph48%30.04 "HgN/A
9:00 AM57 °FPassing clouds.3 mph51%30.04 "HgN/A
8:30 AM55 °FPassing clouds.3 mph59%30.04 "HgN/A
8:00 AM55 °FPassing clouds.3 mph59%30.04 "HgN/A
7:30 AM52 °FSunny.3 mph67%30.04 "Hg10 mi
7:00 AM50 °FSunny.3 mph67%30.04 "Hg10 mi
6:30 AM46 °FSunny.3 mph71%30.01 "Hg10 mi
6:00 AM46 °FSunny.3 mph71%30.01 "Hg10 mi
5:30 AM45 °FClear.3 mph71%30.01 "Hg10 mi
5:00 AM45 °FClear.6 mph76%30.01 "Hg10 mi
4:30 AM46 °FClear.3 mph71%30.01 "Hg10 mi
4:00 AM48 °FClear.3 mph71%30.01 "Hg10 mi
3:30 AM46 °FClear.6 mph71%30.01 "Hg10 mi
3:00 AM46 °FClear.3 mph76%30.01 "Hg10 mi
2:30 AM48 °FClear.3 mph76%30.01 "Hg10 mi
2:00 AM50 °FClear.3 mph71%30.01 "Hg10 mi
1:30 AM48 °FClear.6 mph76%30.01 "Hg10 mi
1:00 AM48 °FClear.6 mph76%30.04 "Hg10 mi
12:30 AM50 °FClear.6 mph71%30.04 "Hg10 mi
12:00 AM50 °FClear.6 mph71%30.04 "Hg10 mi
11:30 PM
Apr 16
52 °FPassing clouds.3 mph58%30.04 "HgN/A
11:00 PM55 °FClear.1 mph47%30.04 "Hg10 mi
10:30 PM57 °FClear.No wind41%30.04 "Hg10 mi
10:00 PM57 °FClear.No wind48%30.04 "Hg10 mi
Weather by CustomWeather, © 2014

See weather overview